User: anonymous   Login
Location: Budapest
(47.4979°N, 19.0402°E)
Time: 02:30:24
(UTC+01:00)
Language:

STARS - Orbit

View from above orbital plane
View from above orbital plane
View from above satellite
View from above satellite

Ground track
Ground track

The orbit data is extracted from the following two-line orbital elements,

1 33498U 09002G   18023.06620368  .00000212  00000-0  36585-4 0  9999
2 33498  98.3289 209.6306 0011219  13.0867 102.0077 14.78736376484390
Epoch (UTC): 23 January 2018 01:35:19
Eccentricity: 0.0011219
inclination: 98.3289°
perigee height: 625 km
apogee height: 641 km
right ascension of ascending node: 209.6306°
argument of perigee: 13.0867°
revolutions per day: 14.78736376
mean anomaly at epoch: 102.0077°
orbit number at epoch: 48439

The dashed part of the orbit path shows where the satellite is in the earth's shadow,  

DLR